This is the latest recevied weather packets stored in our database for station/object DK6GC-10. If no packets are shown the sender has not sent any weather packets the latest 1 day(s).
| Time | Temp. | Humidity | Pressure | Rain* | Wind** | Luminosity | Snow |
|---|---|---|---|---|---|---|---|
| 1777780823 | 13.33° C | 66% | 1015.8 hPa | - | - | - | - |
| 1777779923 | 12.78° C | 71% | 1016.1 hPa | - | - | - | - |
| 1777779023 | 12.78° C | 68% | 1016.2 hPa | - | - | - | - |
| 1777778122 | 12.78° C | 70% | 1016 hPa | - | - | - | - |
| 1777777222 | 12.78° C | 71% | 1015.9 hPa | - | - | - | - |
| 1777776322 | 12.78° C | 71% | 1016 hPa | - | - | - | - |
| 1777774521 | 13.33° C | 67% | 1016.1 hPa | - | - | - | - |
| 1777773621 | 13.33° C | 69% | 1016.2 hPa | - | - | - | - |
| 1777772721 | 13.33° C | 68% | 1016.2 hPa | - | - | - | - |
| 1777771821 | 12.78° C | 71% | 1016.2 hPa | - | - | - | - |
| 1777770921 | 13.33° C | 69% | 1016.2 hPa | - | - | - | - |
| 1777770021 | 12.78° C | 70% | 1016.4 hPa | - | - | - | - |
| 1777769120 | 13.33° C | 67% | 1016.5 hPa | - | - | - | - |
| 1777768220 | 13.33° C | 69% | 1016.5 hPa | - | - | - | - |
| 1777767319 | 13.89° C | 67% | 1016.7 hPa | - | - | - | - |
| 1777766425 | 13.89° C | 68% | 1016.6 hPa | - | - | - | - |
| 1777765526 | 13.89° C | 67% | 1016.8 hPa | - | - | - | - |
| 1777764625 | 14.44° C | 69% | 1016.9 hPa | - | - | - | - |
| 1777763725 | 14.44° C | 68% | 1017 hPa | - | - | - | - |
| 1777762825 | 15° C | 66% | 1017.1 hPa | - | - | - | - |
| 1777761924 | 15° C | 68% | 1017 hPa | - | - | - | - |
| 1777761024 | 15.56° C | 68% | 1016.9 hPa | - | - | - | - |
| 1777760124 | 15.56° C | 67% | 1016.9 hPa | - | - | - | - |
| 1777759224 | 15.56° C | 66% | 1016.9 hPa | - | - | - | - |
| 1777758324 | 15.56° C | 68% | 1016.8 hPa | - | - | - | - |
* Rain since midnight (hover to see other rain measurements)
** Current wind speed in m/s (hover to see current wind gust speed)